Date,TemperatureHighF,TemperatureAvgF,TemperatureLowF,DewpointHighF,DewpointAvgF,DewpointLowF,HumidityHigh,HumidityAvg,HumidityLow,PressureMaxIn,PressureMinIn,WindSpeedMaxMPH,WindSpeedAvgMPH,GustSpeedMaxMPH,PrecipitationSumIn
2013-1-1,77.3,62.1,49.0,62.4,56.1,48.0,99,83,56,30.24,30.07,4,0,10,0.00
2013-1-2,82.2,66.1,53.0,69.5,60.5,51.9,99,84,58,30.10,30.00,5,0,7,0.00
2013-1-3,73.8,64.6,58.5,67.2,62.9,57.0,99,94,77,30.20,30.05,8,1,11,0.02
2013-1-4,60.3,58.1,55.5,58.8,57.1,54.0,98,97,94,30.30,30.16,6,3,12,0.04
2013-1-5,73.5,62.4,54.8,64.5,58.7,52.8,97,88,72,30.31,30.21,6,2,9,0.00
2013-1-6,81.0,69.1,62.6,71.2,65.7,61.0,99,90,67,30.24,30.08,4,0,7,0.20
2013-1-7,69.3,64.7,59.5,65.6,60.4,56.5,96,86,69,30.23,30.14,7,2,12,0.00
2013-1-8,82.0,70.5,62.3,71.0,65.9,61.0,99,87,66,30.25,30.15,3,0,6,0.00
2013-1-9,83.7,74.2,68.1,73.4,69.3,66.8,99,86,59,30.32,30.21,5,1,9,0.00
2013-1-10,82.5,72.3,62.2,71.5,66.3,60.0,99,83,54,30.33,30.23,8,1,10,0.01
2013-1-11,82.3,70.0,60.5,71.0,65.3,59.0,99,86,64,30.29,30.17,5,1,9,0.00
2013-1-12,82.1,69.9,57.5,70.3,63.4,56.9,99,82,52,30.22,30.11,5,1,8,0.00
2013-1-13,82.6,69.9,57.9,68.2,63.4,57.0,99,82,54,30.19,30.09,4,1,7,0.00
2013-1-14,79.6,68.4,59.5,68.4,63.3,58.9,99,85,59,30.22,30.14,5,0,8,0.00
2013-1-15,82.5,69.7,58.9,69.8,63.5,58.0,99,83,51,30.17,30.07,3,0,7,0.00
2013-1-16,83.4,68.5,58.4,68.1,61.0,57.6,99,80,48,30.13,30.02,6,0,9,0.00
2013-1-17,80.5,63.2,52.6,70.8,58.4,44.9,99,85,67,30.14,30.00,12,2,15,0.00
2013-1-18,63.6,53.5,41.8,60.4,48.8,37.1,96,84,74,30.31,30.14,13,4,16,0.04
2013-1-19,74.4,64.3,55.8,62.1,58.1,52.4,92,81,64,30.30,30.16,6,3,13,0.00
2013-1-20,73.4,64.3,59.5,64.0,60.1,55.5,97,87,71,30.20,30.07,7,2,11,0.00
2013-1-21,72.9,65.4,60.6,65.3,60.2,56.0,91,84,73,30.12,30.02,5,1,9,0.00
2013-1-22,65.4,57.5,44.1,57.0,46.5,37.0,88,69,37,30.31,30.09,12,3,16,0.00
2013-1-23,72.8,54.6,40.0,43.7,39.6,32.7,95,63,24,30.39,30.29,4,0,9,0.00
2013-1-24,76.1,57.0,40.5,53.5,46.8,39.0,98,73,37,30.36,30.25,2,0,6,0.00
2013-1-25,80.0,60.6,45.1,60.2,49.5,44.0,99,71,35,30.34,30.19,3,0,8,0.00
2013-1-26,79.6,65.0,43.7,59.3,53.6,42.0,96,70,42,30.30,30.18,3,0,5,0.00
2013-1-27,81.6,63.8,48.4,63.7,55.4,47.0,99,77,42,30.34,30.25,3,0,5,0.00
2013-1-28,79.3,68.6,59.2,67.4,63.4,58.0,98,85,64,30.36,30.25,3,0,8,0.00
2013-1-29,85.0,72.4,63.7,71.0,66.5,62.0,99,84,53,30.28,30.12,6,1,10,0.00
2013-1-30,85.1,73.4,64.1,67.6,65.0,63.0,98,77,50,30.14,29.93,9,3,17,0.00
2013-1-31,70.0,59.6,43.1,67.1,47.3,30.3,95,68,31,30.26,29.93,6,0,11,0.03
2013-2-1,71.6,52.8,37.0,41.1,36.1,26.0,90,59,22,30.39,30.25,6,0,11,0.00
2013-2-2,76.0,56.0,38.6,47.4,41.6,35.7,94,64,28,30.34,30.17,4,0,6,0.00
2013-2-3,74.2,55.6,39.1,53.5,43.7,35.7,95,67,37,30.22,30.09,3,0,7,0.00
2013-2-4,74.5,54.2,38.5,52.4,40.0,33.4,96,65,25,30.18,30.06,3,0,6,0.00
2013-2-5,79.6,57.8,39.0,54.4,46.8,36.6,96,71,38,30.13,30.01,3,0,9,0.00
2013-2-6,80.1,67.5,54.1,64.0,58.1,51.0,93,74,47,30.14,30.05,2,0,4,0.00
2013-2-7,81.6,71.6,61.7,65.5,62.3,57.4,95,75,49,30.10,29.88,10,2,13,0.00
2013-2-8,84.7,71.0,57.7,65.0,59.9,53.0,94,71,39,30.11,29.89,5,0,8,0.00
2013-2-9,78.4,64.0,53.6,59.0,55.0,51.9,97,75,42,30.23,30.09,4,0,7,0.00
2013-2-10,82.4,72.0,54.5,62.4,58.9,53.0,96,65,46,30.30,30.18,5,1,12,0.00
2013-2-11,84.1,69.8,55.4,64.6,60.2,53.7,98,74,47,30.24,30.09,6,1,10,0.00
2013-2-12,86.0,72.0,58.0,69.4,63.6,56.0,96,77,46,30.13,29.95,5,1,10,0.00
2013-2-13,80.8,69.1,63.3,69.1,65.0,57.7,96,87,66,30.00,29.86,11,3,15,0.06
2013-2-14,64.6,62.3,59.3,62.0,59.8,58.0,98,92,84,30.06,29.95,8,2,11,0.40
2013-2-15,69.8,59.3,54.2,60.0,56.2,52.6,98,90,66,30.10,29.98,9,2,12,0.07
2013-2-16,69.4,56.7,47.5,54.3,45.8,31.0,98,70,40,30.15,29.94,15,3,21,0.00
2013-2-17,52.4,43.8,32.9,33.0,25.9,15.9,91,52,24,30.37,30.16,16,5,21,0.04
2013-2-18,69.7,48.9,29.7,49.0,38.4,27.5,97,71,41,30.39,30.24,7,1,10,0.00
2013-2-19,79.7,60.7,44.2,57.0,50.8,43.0,98,74,42,30.25,30.09,10,1,13,0.00
2013-2-20,76.5,64.9,54.7,63.5,58.8,52.7,98,82,60,30.15,30.03,7,1,13,0.00
2013-2-21,82.4,68.5,56.7,66.5,60.4,54.0,97,77,47,30.14,30.01,5,1,8,0.03
2013-2-22,86.5,72.8,58.5,69.8,64.8,57.7,99,79,47,30.11,30.00,8,1,12,0.00
2013-2-23,88.1,75.7,67.3,70.9,67.6,63.9,97,78,48,30.04,29.90,9,2,13,0.02
2013-2-24,79.9,71.5,65.3,72.0,68.6,64.4,98,91,71,29.99,29.89,7,1,11,0.04
2013-2-25,87.0,73.5,63.9,72.0,65.3,61.5,99,79,45,29.94,29.78,7,1,11,0.00
2013-2-26,77.6,70.5,62.9,73.4,67.4,60.9,96,90,81,29.90,29.76,11,2,16,0.04
2013-2-27,77.0,64.8,54.6,61.9,57.0,50.6,99,79,45,30.00,29.89,11,2,12,0.01
2013-2-28,54.1,52.2,50.5,50.6,49.7,48.8,95,91,88,30.00,29.97,1,0,2,0.00
2013-3-3,50.5,44.0,38.0,36.7,33.4,31.8,80,67,52,30.20,30.05,15,2,15,0.04
2013-3-4,63.8,46.8,31.1,40.0,31.7,25.9,95,62,26,30.27,30.14,13,1,13,0.00
2013-3-5,77.0,57.7,37.8,58.3,45.0,35.9,98,68,35,30.21,30.05,8,2,12,0.00
2013-3-6,67.9,58.5,44.7,61.8,42.0,27.4,95,59,23,30.17,29.97,17,4,27,0.00
2013-3-7,65.0,51.4,40.3,43.1,38.4,33.2,85,63,37,30.25,30.15,11,3,13,0.00
2013-3-8,72.8,55.0,37.5,50.2,41.3,34.0,98,67,25,30.26,30.14,7,1,12,0.00
2013-3-9,75.2,59.5,42.6,52.3,48.3,41.0,98,70,38,30.26,30.16,5,0,10,0.00
2013-3-10,78.0,64.4,52.3,59.0,54.7,50.5,98,74,45,30.20,30.09,5,1,10,0.03
2013-3-11,78.8,65.7,51.2,61.3,56.7,50.0,99,75,49,30.14,29.93,10,1,12,0.00
2013-3-12,71.5,65.9,54.8,67.6,62.1,52.8,96,88,77,30.06,29.90,6,3,13,0.40
2013-3-13,73.1,61.5,49.5,53.0,42.4,31.0,95,55,23,30.20,30.05,14,5,19,0.00
2013-3-14,64.8,54.5,46.1,46.0,37.6,25.8,89,57,23,30.29,30.18,12,4,17,0.00
2013-3-15,71.6,53.4,36.7,46.3,38.8,33.0,96,64,29,30.32,30.17,8,1,11,0.00
2013-3-16,78.9,59.3,40.3,50.3,43.7,38.3,98,63,25,30.22,30.07,5,1,9,0.00
2013-3-17,79.0,62.7,46.2,60.0,52.6,45.0,99,74,42,30.17,30.02,7,1,12,0.00
2013-3-18,79.1,69.1,59.6,66.4,62.9,58.0,97,81,62,30.09,29.91,9,2,14,0.00
2013-3-19,85.9,72.6,61.5,66.9,63.6,60.6,98,76,45,30.03,29.90,6,1,8,0.00
2013-3-20,76.4,68.4,60.1,69.0,63.2,58.0,97,84,60,29.99,29.82,8,1,13,0.22
2013-3-21,64.2,56.3,48.7,59.0,50.4,34.4,98,83,36,30.00,29.89,14,4,16,0.02
2013-3-22,78.7,65.6,42.8,66.0,55.3,40.9,97,74,37,30.05,29.92,7,1,11,0.25
2013-3-23,87.8,73.3,62.1,74.1,67.1,61.4,99,83,53,30.01,29.80,16,2,16,0.00
2013-3-24,83.9,73.4,65.7,75.0,69.9,63.3,98,89,69,29.87,29.65,13,2,21,0.40
2013-3-25,73.2,63.8,49.2,67.4,47.4,26.3,97,62,18,30.06,29.75,12,3,18,0.00
2013-3-26,60.4,52.2,44.0,45.1,33.9,23.4,79,52,28,30.27,30.05,18,6,24,0.00
2013-3-27,62.4,49.5,34.8,39.4,35.3,30.7,96,62,31,30.34,30.22,15,3,15,0.00
2013-3-28,69.0,53.5,35.5,44.4,37.0,28.9,99,61,23,30.33,30.21,10,2,15,0.00
2013-3-29,72.9,56.9,40.7,51.9,40.2,31.7,97,61,23,30.36,30.22,10,1,13,0.00
2013-3-30,80.2,62.2,44.1,54.0,47.8,42.0,96,64,34,30.29,30.13,7,1,12,0.00
2013-3-31,82.9,68.5,56.7,59.8,54.7,50.7,91,65,36,30.21,30.02,8,2,12,0.00
2013-4-1,84.7,72.0,61.2,68.1,62.4,58.8,95,74,47,30.06,29.95,8,2,14,0.00
2013-4-2,85.6,70.5,59.9,65.5,59.9,51.2,99,74,33,30.11,30.02,7,1,9,0.00
2013-4-3,87.5,71.5,61.0,69.5,64.2,58.0,98,80,50,30.11,29.96,7,1,13,0.20
2013-4-4,72.5,69.2,66.6,69.1,66.9,63.0,98,92,81,30.06,29.88,10,2,22,0.46
2013-4-5,75.5,68.3,61.3,70.2,63.0,56.3,97,85,54,30.00,29.83,12,3,15,0.19
2013-4-6,78.2,65.0,54.5,60.7,57.1,52.0,96,77,51,30.15,30.00,11,3,14,0.01
2013-4-7,82.5,68.9,57.6,65.0,59.7,55.0,99,76,44,30.18,30.08,4,1,8,0.02
2013-4-8,84.8,71.0,58.3,66.0,60.9,56.4,99,74,43,30.16,30.07,5,0,12,0.00
2013-4-9,88.2,71.2,59.1,69.2,62.2,58.0,98,76,46,30.19,30.09,5,1,13,0.00
2013-4-10,87.9,69.9,57.0,70.6,63.2,55.8,98,82,45,30.15,29.99,5,1,7,0.00
2013-4-11,89.2,77.9,70.2,72.2,70.4,67.0,98,80,51,30.03,29.84,9,3,16,0.04
2013-4-12,84.3,76.8,71.9,74.1,71.6,69.7,95,85,66,29.92,29.82,11,3,24,0.00
2013-4-13,86.6,75.9,67.7,71.0,68.2,63.4,98,79,54,30.01,29.89,8,1,9,0.00
2013-4-14,90.8,76.4,66.7,75.0,68.9,60.9,93,79,55,30.01,29.84,16,2,24,0.01
2013-4-15,88.7,75.5,64.1,70.0,65.1,60.0,89,72,48,30.10,29.95,9,1,12,0.00
2013-4-16,90.8,77.0,67.8,74.1,69.2,65.8,97,79,54,30.17,30.06,5,1,10,0.00
2013-4-17,87.0,73.5,62.7,70.2,65.8,61.3,99,79,49,30.17,30.05,8,1,12,0.00
2013-4-18,88.3,76.3,63.6,72.3,67.7,63.0,99,77,51,30.08,29.96,5,1,8,0.02
2013-4-19,91.0,80.3,71.8,73.2,70.5,67.0,96,74,49,30.04,29.93,11,3,15,0.00
2013-4-20,73.8,68.8,62.0,72.3,65.1,58.4,95,88,76,30.18,29.98,14,4,18,0.09
2013-4-21,82.4,68.6,61.1,73.1,65.8,57.9,97,91,69,30.17,30.03,7,2,11,1.67
2013-4-22,79.0,70.7,66.5,71.1,67.7,64.0,99,90,70,30.10,30.00,12,4,13,0.27
2013-4-23,81.9,71.7,63.9,68.3,63.6,59.8,98,78,50,30.13,30.03,8,3,14,0.00
2013-4-24,86.0,71.4,55.4,67.8,61.6,54.0,99,74,43,30.17,30.08,5,1,8,0.00
2013-4-25,87.3,73.3,59.5,67.9,62.5,58.6,99,73,41,30.23,30.12,6,0,7,0.00
2013-4-26,86.3,74.1,61.2,68.9,64.2,59.8,97,74,46,30.26,30.17,4,1,8,0.00
2013-4-27,85.8,74.0,65.2,70.7,66.3,63.9,98,79,50,30.25,30.12,6,1,10,0.00
2013-4-28,87.1,74.0,61.5,68.1,64.0,59.3,99,74,42,30.16,30.00,9,1,11,0.00
2013-4-29,88.1,75.0,63.3,68.4,64.8,60.7,97,73,44,30.06,29.91,8,1,14,0.00
2013-4-30,88.5,73.8,67.4,72.8,68.2,65.0,98,85,48,30.04,29.92,11,1,24,0.00
2013-5-1,75.5,70.5,68.3,73.3,69.6,67.7,99,97,91,30.04,29.95,6,0,7,0.00
2013-5-2,78.2,69.2,64.3,73.0,67.8,63.7,99,95,82,30.00,29.84,7,1,11,0.00
2013-5-3,81.7,71.0,63.6,72.0,67.9,63.0,100,91,65,29.86,29.72,9,3,14,0.00
2013-5-4,83.9,73.5,67.7,71.9,68.0,65.9,99,85,57,29.83,29.68,9,1,16,0.00
2013-5-5,78.4,68.8,58.4,67.0,55.6,44.0,97,67,35,29.96,29.78,17,4,22,0.00
2013-5-6,79.4,67.9,57.5,62.3,57.0,52.1,96,71,43,30.03,29.92,7,2,16,0.00
2013-5-7,81.7,67.1,52.1,61.6,56.4,50.9,98,71,46,30.08,29.99,8,1,14,0.00
2013-5-8,83.6,70.6,56.6,65.2,59.5,55.0,98,71,43,30.16,30.05,5,1,11,0.00
2013-5-9,84.8,71.5,56.1,66.4,61.0,55.0,99,73,42,30.17,30.09,6,1,10,0.00
2013-5-10,92.0,77.3,62.1,73.7,66.9,60.8,98,74,39,30.16,30.00,10,1,11,0.00
2013-5-11,91.1,77.5,66.9,74.1,69.8,65.1,98,79,52,30.07,29.98,13,2,18,0.00
2013-5-12,90.0,77.1,67.0,75.1,68.6,65.0,98,77,49,30.06,29.96,7,1,14,0.00
2013-5-13,82.6,72.4,62.4,67.6,61.5,52.4,98,72,40,30.15,30.02,12,3,15,0.00
2013-5-14,82.5,68.5,51.6,60.8,54.8,47.0,98,67,31,30.23,30.13,8,1,14,0.00
2013-5-15,84.9,71.0,55.7,64.5,58.8,53.0,98,69,36,30.24,30.11,5,1,13,0.00
2013-5-16,85.9,73.7,59.6,66.4,62.2,58.0,97,70,43,30.15,30.03,5,1,9,0.00
2013-5-17,88.4,75.3,62.0,68.8,64.6,59.7,98,73,41,30.12,30.05,7,1,9,0.00
2013-5-18,91.6,78.6,66.1,74.4,68.6,64.0,99,75,42,30.13,30.01,5,1,7,0.00
2013-5-19,92.7,79.1,70.2,74.5,70.9,65.4,98,78,42,30.11,30.00,5,1,9,0.00
2013-5-20,92.0,76.5,69.0,74.4,70.2,67.0,98,83,50,30.10,29.99,5,1,20,0.00
2013-5-21,87.2,73.1,67.9,74.4,70.1,67.0,99,91,55,30.06,29.97,11,1,14,0.00
2013-5-22,89.2,74.8,67.5,75.4,71.1,66.9,99,90,56,30.00,29.91,15,0,16,0.00
2013-5-23,90.0,77.6,68.9,75.5,71.2,67.4,99,82,51,30.03,29.93,8,1,10,0.00
2013-5-24,92.5,79.7,67.6,76.6,68.0,57.7,99,72,32,30.11,29.99,7,2,11,0.00
2013-5-25,87.5,77.1,68.4,71.3,66.6,61.0,95,72,46,30.21,30.09,8,1,14,0.00
2013-5-26,84.9,72.6,59.2,66.8,62.1,56.1,98,72,38,30.24,30.15,7,1,10,0.00
2013-5-27,85.7,74.3,62.1,69.5,64.5,60.0,98,74,48,30.20,30.10,8,1,11,0.00
2013-5-28,87.6,76.5,67.3,76.9,70.7,65.7,97,83,61,30.17,30.07,5,1,12,0.00
2013-5-29,85.1,75.6,70.1,76.7,72.4,69.0,98,90,67,30.16,30.07,6,1,16,0.00
2013-5-30,86.7,77.0,72.0,76.9,72.8,69.8,98,88,67,30.13,30.05,4,1,10,0.00
2013-5-31,88.7,78.1,70.5,77.7,71.8,68.7,95,82,63,30.12,30.04,4,1,11,0.00
2013-6-1,90.6,79.4,71.5,77.4,73.9,70.5,98,85,62,30.09,29.96,7,1,10,0.00
2013-6-2,93.2,81.0,74.1,77.6,74.7,72.0,99,83,52,30.03,29.89,6,1,10,0.00
2013-6-3,90.1,79.6,73.1,77.4,74.3,72.0,99,85,59,30.03,29.92,5,1,13,0.00
2013-6-4,88.3,78.2,71.4,75.0,72.6,70.0,97,84,59,30.05,29.96,12,2,13,0.00
2013-6-5,81.7,74.6,71.5,77.2,73.0,70.6,99,95,80,30.04,29.93,3,0,7,0.00
2013-6-6,78.9,75.1,73.1,76.4,73.7,71.0,99,96,83,29.93,29.69,10,3,20,0.05
2013-6-7,89.4,79.3,72.3,76.8,73.6,71.5,98,84,60,29.97,29.80,6,2,10,0.00
2013-6-8,93.0,77.1,71.6,78.4,73.3,71.0,99,90,55,30.12,29.97,6,1,13,2.99
2013-6-9,92.5,79.9,71.0,78.3,74.3,69.8,99,85,49,30.13,30.04,6,1,9,0.01
2013-6-10,91.6,80.3,72.7,78.5,74.0,69.8,99,83,55,30.11,30.02,8,1,8,0.00
2013-6-11,93.6,78.7,72.1,79.8,74.3,70.8,98,87,54,30.10,30.00,9,1,10,0.10
2013-6-12,94.0,80.2,70.1,76.8,72.7,69.5,99,80,49,30.10,30.01,11,1,20,0.03
2013-6-13,94.3,81.7,71.4,78.3,74.1,70.5,98,79,52,30.06,29.92,7,1,14,0.00
2013-6-14,92.3,82.2,73.5,76.9,73.3,67.8,97,77,51,29.96,29.86,9,1,12,0.00
2013-6-15,88.8,79.9,74.4,80.6,75.5,72.0,97,87,67,30.09,29.93,8,1,11,0.28
2013-6-16,93.6,82.8,74.9,79.0,76.1,74.0,98,82,54,30.10,30.01,6,1,9,0.60
2013-6-17,96.0,82.6,72.0,81.4,76.2,70.8,99,83,51,30.14,29.98,7,1,13,2.97
2013-6-18,96.2,83.0,73.1,79.4,74.4,70.8,97,77,48,30.09,29.97,9,1,9,0.00
2013-6-19,88.9,77.9,73.4,77.0,74.0,72.0,97,89,66,30.06,30.01,6,1,10,0.00
2013-6-20,94.1,80.2,72.8,77.0,73.2,67.7,97,81,52,30.12,30.00,10,1,15,0.07
2013-6-21,91.6,76.5,70.8,77.4,72.7,70.0,99,89,55,30.13,30.06,12,1,15,0.35
2013-6-22,92.7,80.7,71.8,78.0,73.0,63.5,99,80,40,30.14,30.06,8,1,12,0.00
2013-6-23,92.2,79.2,72.4,77.3,74.3,70.8,99,86,53,30.17,30.08,5,0,10,0.03
2013-6-24,93.3,81.4,73.1,78.8,74.5,71.0,99,81,50,30.20,30.08,9,0,14,0.08
2013-6-25,93.6,82.3,73.0,77.8,73.6,70.0,98,77,49,30.17,30.05,5,0,8,0.00
2013-6-26,91.7,79.3,72.7,78.4,74.3,71.0,98,86,56,30.09,30.02,8,1,12,0.05
2013-6-27,94.8,81.2,71.0,77.9,73.8,69.0,99,81,46,30.08,29.95,8,1,9,0.00
2013-6-28,94.8,79.9,73.3,78.5,74.4,70.9,97,85,52,30.00,29.88,7,1,15,0.14
2013-6-29,90.0,79.3,74.7,79.8,75.2,71.0,97,88,61,29.90,29.82,7,1,16,0.01
2013-6-30,90.9,77.6,73.6,79.0,74.4,72.0,97,90,64,29.91,29.84,6,2,12,0.29
2013-7-1,83.2,75.1,72.3,76.8,72.7,70.9,98,92,79,30.05,29.88,9,2,14,0.25
2013-7-2,83.0,75.7,72.7,78.2,73.9,71.7,99,94,77,30.11,30.00,5,1,12,0.00
2013-7-3,90.4,77.6,72.0,81.5,74.7,71.7,99,91,66,30.15,30.07,6,1,15,0.38
2013-7-4,89.3,78.8,71.2,79.0,74.1,70.9,99,86,65,30.18,30.09,7,1,19,0.05
2013-7-5,91.4,80.6,74.9,80.7,76.2,71.8,98,87,61,30.16,30.08,8,1,14,0.60
2013-7-6,92.4,81.2,72.9,79.1,74.7,72.6,99,82,55,30.14,30.05,7,1,12,0.00
2013-7-7,92.3,81.7,73.8,80.9,75.2,72.0,99,82,55,30.15,30.06,4,0,9,0.03
2013-7-8,93.9,82.4,74.5,79.5,74.9,70.0,99,80,52,30.18,30.09,5,0,7,0.01
2013-7-9,91.5,80.4,72.9,77.7,73.8,67.4,99,82,48,30.18,30.08,6,1,13,0.08
2013-7-10,91.6,80.1,71.9,77.4,73.7,71.0,99,82,57,30.11,29.99,8,0,10,0.01
2013-7-11,93.0,80.3,73.2,76.1,73.7,70.6,97,82,50,30.06,29.95,6,1,8,0.00
2013-7-12,87.3,78.2,71.8,78.0,74.9,70.9,98,90,69,29.98,29.91,7,1,10,0.41
2013-7-13,92.7,77.1,71.1,76.9,73.1,70.5,99,89,55,30.02,29.93,6,1,16,0.54
2013-7-14,90.6,76.8,71.5,80.2,73.7,71.0,99,91,62,30.11,29.99,17,1,17,0.02
2013-7-15,89.6,77.3,71.3,77.3,73.8,70.7,99,90,59,30.14,30.04,6,1,9,0.02
2013-7-16,91.8,77.8,73.7,77.9,74.1,71.9,98,90,55,30.18,30.11,8,1,12,0.66
2013-7-17,90.3,78.5,72.9,78.6,74.8,71.5,98,89,61,30.18,30.09,6,1,15,0.27
2013-7-18,86.6,76.6,72.6,77.8,73.9,71.7,99,92,69,30.15,30.06,9,0,11,0.64
2013-7-19,90.4,77.5,71.9,79.3,73.8,71.0,99,90,63,30.15,30.05,8,1,10,1.35
2013-7-20,91.8,77.9,71.9,81.0,74.5,71.5,99,90,61,30.13,30.03,4,1,9,0.04
2013-7-21,83.8,74.5,71.7,79.5,73.4,71.0,98,96,86,30.15,30.07,3,0,6,0.24
2013-7-22,94.9,79.7,73.7,79.0,74.7,72.0,98,86,53,30.15,30.09,8,1,10,0.16
2013-7-23,90.1,78.0,73.1,80.0,74.8,72.0,99,90,64,30.11,29.98,9,1,16,0.16
2013-7-24,89.3,80.4,75.1,80.0,76.4,74.0,98,88,73,30.02,29.90,8,1,16,0.45
2013-7-25,86.8,79.8,75.5,79.0,76.5,74.0,97,90,74,30.01,29.89,9,0,10,0.76
2013-7-26,91.5,80.7,74.6,79.0,75.7,73.0,99,86,56,30.03,29.96,7,1,14,0.22
2013-7-27,93.2,81.4,73.3,79.0,76.0,73.0,99,85,58,30.01,29.91,6,1,11,0.00
2013-7-28,95.0,79.5,72.4,79.0,73.8,71.0,99,85,49,30.08,29.95,6,1,9,0.31
2013-7-29,92.3,80.2,72.1,78.0,74.2,71.0,99,84,52,30.17,30.04,4,0,9,0.01
2013-7-30,94.0,83.2,74.0,79.0,75.9,73.0,98,81,53,30.19,30.09,7,1,9,0.00
2013-7-31,96.1,83.0,74.9,80.0,75.8,70.0,99,81,44,30.15,30.02,5,1,14,0.05
2013-8-1,93.1,80.1,74.0,78.0,74.8,73.0,99,86,54,30.09,29.96,6,1,11,0.31
2013-8-2,91.8,80.7,73.1,78.0,74.2,69.0,99,83,49,30.05,29.96,10,1,20,0.60
2013-8-3,94.0,80.1,73.9,80.0,75.6,72.0,99,88,53,30.12,30.02,10,1,17,0.39
2013-8-4,92.5,81.4,74.8,81.0,76.9,74.0,99,87,64,30.11,30.01,5,1,12,0.02
2013-8-5,94.7,82.6,76.0,82.0,77.4,74.0,98,85,58,30.04,29.93,12,1,15,0.30
2013-8-6,93.8,82.5,74.5,81.0,76.8,74.0,99,84,60,29.99,29.91,4,0,11,0.01
2013-8-7,93.4,84.2,76.9,80.0,77.5,75.0,98,81,58,29.99,29.93,3,0,8,0.00
2013-8-8,94.3,85.5,75.5,80.0,76.5,74.0,99,76,54,30.06,29.96,4,1,8,0.00
2013-8-9,93.2,81.3,75.2,79.0,75.6,73.0,98,84,56,30.09,29.99,7,1,13,0.15
2013-8-10,95.2,83.4,72.8,79.0,75.3,70.0,99,79,46,30.14,30.05,7,1,9,0.01
2013-8-11,95.5,84.0,74.0,80.0,75.6,73.0,99,78,52,30.17,30.07,4,1,8,0.00
2013-8-12,93.8,82.7,73.5,79.0,74.6,71.0,98,78,52,30.15,30.02,5,1,12,0.00
2013-8-13,94.3,82.5,72.6,78.0,74.4,72.0,98,79,49,30.07,29.93,5,1,8,0.00
2013-8-14,97.6,82.4,75.8,80.0,76.0,74.0,97,82,51,30.04,29.91,7,1,13,0.00
2013-8-15,93.3,82.4,73.7,78.0,75.3,73.0,98,81,54,30.06,29.94,5,1,9,0.00
2013-8-16,94.6,82.4,75.1,80.0,76.1,73.0,96,83,50,30.07,29.98,8,1,8,0.28
2013-8-17,94.7,81.0,73.7,82.0,77.1,72.0,99,89,60,30.10,30.00,21,1,24,1.39
2013-8-18,92.2,80.5,75.7,80.0,76.8,75.0,100,90,63,30.13,30.03,8,1,10,0.43
2013-8-19,94.4,80.4,73.6,81.0,76.1,73.0,99,88,59,30.12,29.99,6,1,11,0.01
2013-8-20,94.6,80.9,73.6,80.0,76.0,73.0,99,86,55,30.11,30.01,9,1,11,0.32
2013-8-21,92.9,80.9,75.5,81.0,77.0,75.0,98,89,62,30.13,30.04,11,1,12,0.40
2013-8-22,81.7,77.7,75.2,77.0,75.9,75.0,98,94,84,30.10,30.01,4,1,10,0.03
2013-8-23,93.9,81.1,75.9,81.0,76.8,74.0,99,88,55,30.04,29.96,10,1,10,0.09
2013-8-24,91.8,78.9,74.5,80.0,75.6,73.0,99,91,64,30.13,30.02,7,1,22,0.04
2013-8-25,90.3,79.2,74.4,78.0,75.6,73.0,99,89,65,30.18,30.09,6,1,13,0.05
2013-8-26,85.8,78.5,74.5,79.0,75.6,73.0,98,91,72,30.16,30.02,9,2,12,0.19
2013-8-27,91.3,80.2,72.6,76.0,72.9,69.0,99,81,53,30.09,30.00,5,1,9,0.01
2013-8-28,90.7,78.6,70.1,76.0,71.4,67.0,98,81,46,30.08,29.99,4,0,9,0.00
2013-8-29,91.3,81.2,71.6,75.0,72.5,69.0,98,77,51,30.05,29.94,6,1,7,0.00
2013-8-30,94.7,80.4,73.1,78.0,74.2,71.0,99,84,52,30.00,29.91,7,1,25,0.93
2013-8-31,94.6,81.5,72.3,79.0,74.5,71.0,99,81,52,29.99,29.90,5,1,10,0.04
2013-9-1,93.2,79.9,71.6,78.0,73.7,70.0,97,83,52,30.02,29.91,9,1,13,0.39
2013-9-2,91.5,79.0,71.4,79.0,74.3,71.0,99,87,61,30.04,29.95,6,0,9,0.11
2013-9-3,90.0,79.9,72.0,79.0,75.5,71.0,99,87,66,30.04,29.95,6,1,8,0.01
2013-9-4,90.6,78.7,71.5,79.0,74.8,70.0,99,89,64,30.11,29.99,3,0,7,1.09
2013-9-5,93.7,80.2,72.8,81.0,74.9,72.0,98,86,56,30.12,30.01,5,1,9,0.27
2013-9-6,95.3,78.8,72.1,80.0,74.6,71.0,99,89,53,30.07,29.95,12,1,20,1.90
2013-9-7,89.2,77.2,72.3,78.0,73.7,72.0,99,90,59,30.04,29.94,6,1,12,0.24
2013-9-8,90.0,79.6,72.2,77.0,73.4,71.0,99,83,55,30.00,29.89,7,2,13,0.00
2013-9-9,91.3,80.6,72.3,77.0,73.0,67.0,98,80,48,30.05,29.95,6,1,9,0.00
2013-9-10,90.1,81.1,74.6,75.0,73.2,69.0,96,79,52,30.11,30.02,6,1,11,0.00
2013-9-11,92.0,81.5,74.2,75.0,72.7,69.0,97,77,51,30.09,30.00,6,1,10,0.00
2013-9-12,91.2,77.7,72.8,78.0,74.1,72.0,99,90,55,30.04,29.92,9,1,11,1.06
2013-9-13,90.8,79.7,71.5,77.0,74.0,71.0,100,84,57,29.93,29.81,3,0,7,0.00
2013-9-14,91.7,83.3,72.7,77.2,74.7,72.0,99,77,56,30.00,29.85,4,1,7,0.00
2013-9-15,92.1,78.0,71.6,80.6,74.7,69.0,98,90,63,30.10,29.99,8,1,18,0.13
2013-9-16,92.9,78.0,72.0,80.6,74.3,71.4,99,90,56,30.10,30.00,9,1,13,0.14
2013-9-17,89.9,78.8,72.8,79.3,74.3,72.0,99,87,61,30.08,29.97,7,1,10,0.04
2013-9-18,84.0,76.9,74.3,78.3,74.3,72.9,97,92,76,30.06,29.98,9,1,13,0.23
2013-9-19,90.3,79.3,72.9,78.0,73.6,70.2,98,84,54,30.07,29.98,6,1,9,0.03
2013-9-20,90.8,78.5,71.1,73.0,70.8,68.4,96,79,51,30.05,29.92,3,0,10,0.00
2013-9-21,89.6,78.5,68.8,75.0,71.4,68.0,99,81,55,29.97,29.78,3,0,5,0.00
2013-9-22,93.9,78.7,73.1,77.5,74.1,71.0,97,87,55,29.88,29.78,9,1,15,0.00
2013-9-23,89.2,76.2,73.3,79.0,74.5,72.0,99,95,67,29.98,29.86,7,1,10,2.73
2013-9-24,86.2,77.3,73.9,77.7,74.7,73.0,99,92,72,29.99,29.87,6,1,11,0.07
2013-9-25,82.2,76.0,72.6,75.2,73.2,71.0,98,91,74,29.89,29.81,5,1,10,0.13
2013-9-26,89.7,81.4,73.9,80.4,71.8,59.4,98,75,38,29.89,29.79,12,2,17,0.01
2013-9-27,82.0,75.6,69.9,74.0,71.6,68.7,98,88,71,29.98,29.87,10,4,16,0.00
2013-9-28,86.1,76.8,71.4,75.8,72.4,69.8,98,87,68,30.02,29.93,6,2,9,0.00
2013-9-29,86.1,76.8,68.9,74.4,70.0,67.0,98,81,54,30.01,29.91,5,2,9,0.03
2013-9-30,89.7,77.3,68.4,74.2,70.5,67.5,99,82,53,30.04,29.93,6,0,9,0.00
2013-10-1,90.3,78.7,70.6,76.1,72.4,69.9,99,82,53,30.08,29.99,6,1,10,0.00
2013-10-2,87.7,77.9,70.8,74.4,71.4,69.0,96,82,60,30.08,30.00,12,1,12,0.00
2013-10-3,90.0,78.5,70.1,75.0,71.5,68.8,98,81,55,30.10,30.00,4,0,8,0.01
2013-10-4,89.3,78.6,70.1,75.7,71.9,68.9,99,82,55,30.10,30.00,4,0,8,0.00
2013-10-5,90.3,78.1,69.2,76.0,71.9,68.3,99,83,59,30.08,29.97,6,1,11,0.00
2013-10-6,90.6,79.0,70.4,77.0,72.7,68.0,99,83,50,30.01,29.86,4,0,8,0.02
2013-10-7,86.9,76.7,71.8,77.7,73.5,69.7,99,90,70,29.90,29.76,8,2,17,0.12
2013-10-8,90.7,78.4,74.8,79.0,75.1,71.9,98,90,65,29.97,29.80,8,2,11,0.17
2013-10-9,79.3,74.1,68.0,72.3,70.0,66.5,95,87,73,30.06,29.94,14,6,15,0.00
2013-10-10,84.7,73.5,65.7,70.5,67.5,64.8,99,83,57,30.08,29.98,6,2,12,0.02
2013-10-11,86.4,73.3,62.9,69.0,65.2,62.0,99,78,49,30.07,29.96,11,1,11,0.00
2013-10-12,85.0,73.3,62.9,70.4,64.5,59.0,98,77,45,30.07,29.98,9,1,13,0.00
2013-10-13,85.9,72.2,62.5,69.6,64.1,58.4,98,79,44,30.11,30.01,6,1,10,0.00
2013-10-14,83.7,73.6,64.6,70.7,66.9,63.0,98,81,52,30.07,29.95,10,3,12,0.01
2013-10-15,78.8,72.0,67.2,72.2,69.4,66.0,99,92,74,30.02,29.92,7,2,10,0.00
2013-10-16,84.7,74.4,68.4,73.1,70.1,67.3,99,88,60,30.00,29.91,4,0,9,0.00
2013-10-17,85.7,75.0,65.8,75.0,70.2,65.5,100,86,59,30.00,29.91,3,0,6,0.01
2013-10-18,90.6,77.2,67.5,75.0,70.4,66.7,99,82,49,30.01,29.91,8,0,9,0.00
2013-10-19,90.5,78.5,69.4,76.5,72.2,68.7,99,83,53,29.98,29.88,5,1,7,0.00
2013-10-20,86.0,78.4,72.9,76.8,74.0,71.7,98,87,70,29.99,29.88,6,1,8,0.00
2013-10-21,92.4,79.7,70.7,77.6,73.3,70.0,99,83,56,30.02,29.92,4,1,7,0.00
2013-10-22,91.6,79.4,73.0,76.8,73.8,71.0,99,84,58,29.96,29.83,6,1,11,0.01
2013-10-23,80.8,73.3,66.9,72.1,64.9,55.8,98,77,44,30.03,29.82,12,3,14,0.02
2013-10-24,70.8,65.6,59.1,61.0,56.5,49.0,93,73,60,30.19,30.03,8,3,10,0.01
2013-10-25,77.7,66.8,58.3,61.9,57.5,51.7,97,75,42,30.26,30.17,9,3,14,0.00
2013-10-26,77.6,65.2,55.1,60.1,56.0,50.0,98,75,40,30.23,30.11,9,1,11,0.00
2013-10-27,77.9,64.1,52.7,62.0,55.9,51.9,99,78,43,30.16,30.08,7,1,13,0.01
2013-10-28,82.8,66.8,53.2,66.3,59.4,51.8,98,79,50,30.22,30.12,7,1,9,0.00
2013-10-29,84.5,71.0,61.2,68.4,64.6,60.0,99,82,55,30.25,30.15,8,1,13,0.00
2013-10-30,84.0,72.3,65.4,71.5,66.7,64.5,97,84,54,30.25,30.13,9,1,11,0.00
2013-10-31,86.1,73.7,62.4,70.9,66.4,61.8,99,80,52,30.16,30.00,5,0,11,0.00
2013-11-1,89.1,75.6,66.3,72.7,68.7,64.5,99,81,47,30.03,29.88,7,1,17,0.00
2013-11-2,75.5,69.8,63.9,73.5,68.1,62.8,98,94,87,30.00,29.84,16,2,19,0.14
2013-11-3,74.4,65.4,57.4,62.7,55.1,45.0,99,73,36,30.14,29.98,13,4,18,0.02
2013-11-4,77.8,68.8,60.0,66.0,61.0,55.0,96,77,54,30.20,30.11,9,3,20,0.01
2013-11-5,81.6,72.6,64.8,70.7,67.5,63.3,95,85,64,30.17,30.09,9,2,15,0.04
2013-11-6,85.3,73.5,66.3,71.0,67.8,65.0,97,83,57,30.14,30.05,6,1,9,0.00
2013-11-7,79.2,71.0,65.8,71.2,67.4,64.5,99,89,68,30.08,29.98,8,2,10,0.00
2013-11-8,76.4,68.7,62.7,66.3,63.7,58.0,98,85,68,30.15,30.02,12,4,17,0.00
2013-11-9,81.1,69.5,61.5,69.5,63.6,60.0,96,82,61,30.19,30.11,4,1,10,0.00
2013-11-10,81.3,70.8,62.8,69.4,64.8,61.6,98,83,57,30.19,30.09,8,1,13,0.01
2013-11-11,83.6,71.1,63.6,70.5,65.8,62.7,98,85,56,30.19,30.08,7,1,10,0.00
2013-11-12,78.1,69.9,62.2,69.9,65.6,61.3,99,87,68,30.13,30.02,7,1,9,0.00
2013-11-13,68.5,61.1,53.1,63.0,53.7,50.0,91,77,64,30.33,30.10,19,7,25,0.00
2013-11-14,76.7,62.0,51.2,60.3,55.0,49.7,96,80,52,30.33,30.21,7,1,11,0.01
2013-11-15,76.2,66.6,57.0,67.3,62.8,55.0,96,88,68,30.21,30.10,4,0,6,0.03
2013-11-16,73.7,70.0,67.4,72.7,68.7,65.4,98,96,92,30.16,30.05,5,1,8,0.18
2013-11-17,85.9,75.5,67.6,74.0,70.5,66.5,98,86,63,30.11,30.01,6,1,9,0.00
2013-11-18,85.8,74.5,66.6,73.0,69.9,66.0,99,87,61,30.05,29.94,7,1,9,0.00
2013-11-19,77.5,71.5,63.9,70.4,66.7,61.8,97,85,65,30.00,29.90,10,2,11,0.00
2013-11-20,83.1,71.2,63.6,73.8,68.0,61.8,97,90,72,30.13,29.99,7,1,11,0.06
2013-11-21,84.3,72.5,68.8,73.2,70.4,68.0,99,94,68,30.21,30.11,6,1,10,1.28
2013-11-22,81.4,72.5,66.2,74.1,68.7,64.4,99,89,67,30.22,30.12,5,0,11,0.00
2013-11-23,83.0,71.1,63.1,70.5,65.9,62.2,99,85,56,30.14,30.02,6,0,6,0.01
2013-11-24,69.9,65.1,61.9,66.5,60.5,55.0,98,85,76,30.26,30.04,16,4,18,0.01
2013-11-25,73.3,67.5,63.0,63.8,59.5,55.0,92,76,64,30.26,30.09,7,1,12,0.00
2013-11-26,82.8,74.0,66.1,73.7,69.7,63.7,98,87,70,30.10,29.77,15,2,16,0.17
2013-11-27,74.2,63.2,45.2,73.0,58.5,39.4,96,85,65,30.23,29.73,14,4,18,0.13
2013-11-28,63.9,51.1,38.9,54.0,45.4,35.0,95,81,65,30.36,30.23,12,5,15,0.02
2013-11-29,70.5,60.0,52.2,60.1,54.8,50.3,97,84,66,30.38,30.29,12,5,17,0.00
2013-11-30,75.1,64.5,55.9,65.2,60.3,53.0,98,87,66,30.33,30.20,12,4,15,0.00
2013-12-1,71.1,65.2,61.6,66.4,63.3,61.0,99,94,82,30.21,30.00,8,3,11,0.02
2013-12-2,71.2,64.9,60.8,63.0,59.8,56.0,99,85,64,30.00,29.85,8,1,10,0.00
2013-12-3,80.1,66.0,54.1,64.5,59.8,53.0,99,82,55,30.02,29.91,5,1,8,0.00
2013-12-4,83.6,69.4,60.8,70.6,64.4,59.8,99,86,55,30.11,30.00,4,0,9,0.00
2013-12-5,84.1,70.9,59.7,69.8,65.5,59.0,100,85,58,30.20,30.10,5,1,9,0.00
2013-12-6,85.8,71.0,61.9,72.9,66.7,61.0,100,88,55,30.20,30.10,8,1,11,0.01
2013-12-7,83.8,71.0,61.6,69.8,65.4,60.8,99,85,53,30.26,30.16,2,0,6,0.00
2013-12-8,83.9,71.3,61.2,72.4,65.8,60.6,100,85,59,30.25,30.12,5,0,10,0.01
2013-12-9,85.3,71.1,62.1,72.2,66.1,61.0,99,86,54,30.21,30.11,7,1,11,0.00
2013-12-10,84.9,71.1,57.6,72.8,64.0,56.8,99,81,50,30.19,30.09,8,1,12,0.00
2013-12-11,81.3,70.4,59.9,70.0,64.6,56.0,94,82,64,30.27,30.16,7,2,14,0.00
2013-12-12,69.0,61.7,50.3,64.4,52.7,35.9,98,75,43,30.33,30.21,15,4,18,0.04
2013-12-13,75.3,60.9,50.3,60.5,53.9,44.8,95,79,56,30.30,30.15,6,1,8,0.00
2013-12-14,83.1,70.8,58.2,71.2,65.7,56.0,97,85,63,30.14,29.97,9,1,13,0.00
2013-12-15,71.9,67.7,59.2,71.0,64.2,56.0,97,89,76,30.14,29.91,14,3,18,0.20
2013-12-16,63.7,55.1,43.9,56.2,49.4,42.0,96,82,61,30.26,30.13,9,4,14,0.00
2013-12-17,69.6,55.5,42.8,57.0,50.1,41.0,98,84,59,30.27,30.17,8,2,11,0.00
2013-12-18,67.7,53.5,40.8,49.7,45.1,39.0,97,77,43,30.31,30.22,10,2,16,0.00
2013-12-19,74.5,56.3,39.5,61.6,50.3,38.6,99,83,48,30.31,30.20,7,0,8,0.01
2013-12-20,82.4,64.7,49.8,65.9,58.2,49.0,99,82,51,30.23,30.13,6,0,10,0.00
2013-12-21,85.3,72.2,61.1,73.3,66.6,60.0,99,84,60,30.17,30.05,11,1,13,0.00
2013-12-22,85.7,73.8,65.9,73.0,68.6,64.0,99,85,61,30.17,30.08,8,1,14,0.01
2013-12-23,86.6,74.1,63.8,74.4,68.9,62.9,99,86,55,30.19,30.09,7,1,12,0.00
2013-12-24,72.1,63.5,51.8,71.2,54.6,33.7,98,75,38,30.28,30.11,14,4,18,0.00
2013-12-25,74.8,59.2,48.0,59.5,51.7,41.8,94,78,55,30.27,30.17,7,2,12,0.00
2013-12-26,75.4,63.9,57.2,65.0,59.8,56.0,99,88,62,30.25,30.11,9,2,11,0.01
2013-12-27,70.5,65.0,59.6,66.0,62.4,57.9,95,91,85,30.28,30.18,8,3,12,0.00
2013-12-28,78.9,71.5,65.5,71.6,67.8,63.7,98,89,74,30.24,30.03,5,1,12,0.00
2013-12-29,79.2,71.4,62.5,73.9,69.8,61.6,98,95,82,30.04,29.90,8,2,12,0.21
2013-12-30,64.7,60.7,57.4,62.0,59.2,55.8,99,95,87,30.22,30.01,9,2,11,0.00
2013-12-31,67.5,61.6,57.4,57.1,53.9,49.8,96,77,53,30.33,30.19,10,2,13,0.00
2014-1-1,64.8,61.5,58.1,64.0,60.0,54.6,99,95,81,30.27,30.09,8,2,10,0.38
2014-1-2,81.8,69.3,61.7,73.0,66.8,61.0,100,92,68,30.09,29.84,9,2,19,0.95